Overview Statistics Trail Chart Weather Telemetry Raw packets
 

This is the latest recevied weather packets stored in our database for station/object KH6DH-13. If no packets are shown the sender has not sent any weather packets the latest 10 day(s).

<< 14 15 16 17 18 19 20 >>
Time Temp. Humidity Pressure Rain* Wind** Luminosity Snow
1788450918 25° C - - 0.25 mm 0.89 m/s, 121° - -
1788450315 25° C - - 0.25 mm 1.34 m/s, 14° - -
1788449714 25° C - - 0.25 mm 1.34 m/s, 37° - -
1788449113 24.44° C - - 0 mm 1.79 m/s, 3° - -
1788448512 25° C - - 0 mm 2.24 m/s, 326° - -
1788447911 25° C - - 0 mm 1.79 m/s, 70° - -
1788447310 25° C - - 0 mm 0.89 m/s, 308° - -
1788446709 25° C - - 0 mm 0.89 m/s, 302° - -
1788446108 25° C - - 0 mm 1.79 m/s, 101° - -
1788445507 25° C - - 0 mm 1.34 m/s, 23° - -
1788444902 25° C - - 0 mm 1.79 m/s, 110° - -
1788444301 25.56° C - - 0 mm 1.79 m/s, 3° - -
1788443700 25° C - - 0 mm 2.24 m/s, 94° - -
1788443099 25.56° C - - 0 mm 0.89 m/s, 311° - -
1788442498 25° C - - 0 mm 1.34 m/s, 63° - -
1788441897 25° C - - 0 mm 1.34 m/s, 323° - -
1788441296 25° C - - 0 mm 3.58 m/s, 58° - -
1788440689 25.56° C - - 0 mm 1.79 m/s, 120° - -
1788440088 25.56° C - - 0 mm 2.68 m/s, 18° - -
1788439487 25.56° C - - 0 mm 1.34 m/s, 158° - -
1788438886 25.56° C - - 0 mm 2.68 m/s, 6° - -
1788438285 25.56° C - - 0 mm 1.79 m/s, 51° - -
1788437684 25° C - - 0 mm 2.24 m/s, 156° - -
1788437083 25.56° C - - 0 mm 2.24 m/s, 345° - -
1788436491 25.56° C - - 0 mm 2.24 m/s, 145° - -

* Rain latest hour (hover to see other rain measurements)
** Current wind speed in m/s (hover to see current wind gust speed)